Time,TemperatureF,DewpointF,PressureIn,WindDirection,WindDirectionDegrees,WindSpeedMPH,WindSpeedGustMPH,Humidity,HourlyPrecipIn,Conditions,Clouds,dailyrainin,SoftwareType,DateUTC
2013-05-21 00:02:00,60.0,59.0,-100.00,SE,135,2.0,4.0,97,0.00,,,0.00,,2013-05-21 05:02:00,
2013-05-21 00:12:00,59.0,59.0,-100.00,SSE,150,4.0,7.0,98,0.00,,,0.00,,2013-05-21 05:12:00,
2013-05-21 00:22:00,59.0,59.0,-100.00,SE,145,2.0,4.0,98,0.00,,,0.00,,2013-05-21 05:22:00,
2013-05-21 00:32:00,59.0,59.0,-100.00,SE,140,2.0,4.0,98,0.00,,,0.00,,2013-05-21 05:32:00,
2013-05-21 00:42:00,59.0,59.0,-100.00,SE,145,3.0,4.0,98,0.00,,,0.00,,2013-05-21 05:42:00,
2013-05-21 00:51:00,59.0,59.0,-100.00,SE,145,4.0,6.0,98,0.00,,,0.00,,2013-05-21 05:51:00,
2013-05-21 02:31:00,58.0,57.0,-100.00,NNE,25,1.0,4.0,98,0.00,,,0.00,,2013-05-21 07:31:00,
2013-05-21 02:41:00,58.0,57.0,-100.00,NE,55,2.0,3.0,98,0.00,,,0.00,,2013-05-21 07:41:00,
2013-05-21 02:51:00,58.0,57.0,-100.00,NNE,20,2.0,4.0,98,0.00,,,0.00,,2013-05-21 07:51:00,
2013-05-21 03:02:00,58.0,57.0,-100.00,NE,40,2.0,4.0,98,0.00,,,0.00,,2013-05-21 08:02:00,
2013-05-21 03:11:00,58.0,57.0,-100.00,NNE,20,2.0,4.0,98,0.00,,,0.00,,2013-05-21 08:11:00,
2013-05-21 03:21:00,58.0,57.0,-100.00,ENE,60,2.0,4.0,99,0.00,,,0.00,,2013-05-21 08:21:00,
2013-05-21 03:31:00,58.0,57.0,-100.00,ENE,60,2.0,6.0,99,0.00,,,0.00,,2013-05-21 08:31:00,
2013-05-21 03:41:00,58.0,57.0,-100.00,NE,45,2.0,6.0,99,0.00,,,0.00,,2013-05-21 08:41:00,
2013-05-21 03:52:00,58.0,57.0,-100.00,ENE,65,4.0,6.0,99,0.00,,,0.00,,2013-05-21 08:52:00,
2013-05-21 04:01:00,58.0,57.0,-100.00,NNE,15,2.0,5.0,99,0.00,,,0.00,,2013-05-21 09:01:00,
2013-05-21 07:51:00,58.0,57.0,-100.00,NNE,30,6.0,7.0,99,0.00,,,0.00,,2013-05-21 12:51:00,
2013-05-21 08:22:00,58.0,57.0,-100.00,NNE,30,4.0,7.0,99,0.00,,,0.00,,2013-05-21 13:22:00,
2013-05-21 08:31:00,57.0,57.0,-100.00,NNE,30,6.0,8.0,99,0.00,,,0.00,,2013-05-21 13:31:00,
2013-05-21 09:01:00,56.0,55.0,-100.00,NNE,20,4.0,9.0,99,0.00,,,0.00,,2013-05-21 14:01:00,
2013-05-21 09:11:00,56.0,55.0,-100.00,NNE,30,4.0,7.0,99,0.00,,,0.00,,2013-05-21 14:11:00,
2013-05-21 09:21:00,56.0,55.0,-100.00,NE,35,6.0,8.0,99,0.00,,,0.00,,2013-05-21 14:21:00,
2013-05-21 09:32:00,56.0,55.0,-100.00,NNE,30,6.0,11.0,99,0.00,,,0.00,,2013-05-21 14:32:00,
2013-05-21 09:41:00,56.0,55.0,-100.00,NNE,25,5.0,9.0,99,0.00,,,0.00,,2013-05-21 14:41:00,
2013-05-21 09:51:00,56.0,55.0,-100.00,NE,40,6.0,9.0,99,0.00,,,0.00,,2013-05-21 14:51:00,
2013-05-21 10:01:00,56.0,55.0,-100.00,NNE,25,6.0,9.0,99,0.00,,,0.00,,2013-05-21 15:01:00,
2013-05-21 10:11:00,56.0,55.0,-100.00,NNE,15,6.0,9.0,99,0.00,,,0.00,,2013-05-21 15:11:00,
2013-05-21 10:21:00,56.0,55.0,-100.00,NE,45,4.0,9.0,99,0.00,,,0.00,,2013-05-21 15:21:00,
2013-05-21 10:33:00,55.0,55.0,-100.00,NNE,30,6.0,11.0,99,0.00,,,0.00,,2013-05-21 15:33:00,
2013-05-21 10:42:00,56.0,55.0,-100.00,NE,45,5.0,8.0,99,0.00,,,0.00,,2013-05-21 15:42:00,
2013-05-21 11:23:00,55.0,55.0,-100.00,North,0,4.0,8.0,99,0.00,,,0.00,,2013-05-21 16:23:00,
2013-05-21 12:23:00,55.0,54.0,-100.00,NE,40,6.0,11.0,97,0.00,,,0.00,,2013-05-21 17:23:00,
2013-05-21 12:32:00,55.0,54.0,-100.00,NE,45,4.0,10.0,97,0.00,,,0.00,,2013-05-21 17:32:00,
2013-05-21 12:43:00,55.0,54.0,-100.00,North,355,2.0,7.0,97,0.00,,,0.00,,2013-05-21 17:43:00,
2013-05-21 12:52:00,54.0,54.0,-100.00,NNE,20,4.0,9.0,97,0.00,,,0.00,,2013-05-21 17:52:00,
2013-05-21 13:01:00,54.0,54.0,-100.00,North,10,3.0,7.0,97,0.00,,,0.00,,2013-05-21 18:01:00,
2013-05-21 13:12:00,54.0,54.0,-100.00,NNE,15,3.0,7.0,97,0.00,,,0.00,,2013-05-21 18:12:00,
2013-05-21 13:22:00,55.0,54.0,-100.00,NE,35,4.0,7.0,98,0.00,,,0.00,,2013-05-21 18:22:00,
2013-05-21 13:51:00,55.0,54.0,-100.00,North,0,3.0,7.0,98,0.00,,,0.00,,2013-05-21 18:51:00,
2013-05-21 14:41:00,56.0,55.0,-100.00,NNE,15,6.0,9.0,98,0.00,,,0.00,,2013-05-21 19:41:00,
2013-05-21 14:52:00,56.0,55.0,-100.00,NNE,25,6.0,9.0,98,0.00,,,0.00,,2013-05-21 19:52:00,
2013-05-21 15:03:00,56.0,55.0,-100.00,NE,40,5.0,9.0,98,0.00,,,0.00,,2013-05-21 20:03:00,
2013-05-21 15:11:00,56.0,55.0,-100.00,NNE,30,5.0,9.0,98,0.00,,,0.00,,2013-05-21 20:11:00,
2013-05-21 15:22:00,55.0,55.0,-100.00,NNE,30,6.0,9.0,98,0.00,,,0.00,,2013-05-21 20:22:00,
2013-05-21 15:32:00,56.0,55.0,-100.00,North,5,6.0,11.0,98,0.00,,,0.00,,2013-05-21 20:32:00,
2013-05-21 15:42:00,56.0,55.0,-100.00,NNE,15,6.0,10.0,98,0.00,,,0.00,,2013-05-21 20:42:00,
2013-05-21 15:52:00,56.0,55.0,-100.00,NNE,15,4.0,9.0,98,0.00,,,0.00,,2013-05-21 20:52:00,
2013-05-21 16:02:00,56.0,55.0,-100.00,North,10,4.0,9.0,98,0.00,,,0.00,,2013-05-21 21:02:00,
2013-05-21 16:11:00,56.0,55.0,-100.00,NE,55,4.0,11.0,97,0.00,,,0.00,,2013-05-21 21:11:00,
2013-05-21 16:21:00,56.0,55.0,-100.00,NNE,30,6.0,11.0,96,0.00,,,0.00,,2013-05-21 21:21:00,
2013-05-21 16:32:00,56.0,55.0,-100.00,NE,35,5.0,12.0,95,0.00,,,0.00,,2013-05-21 21:32:00,
2013-05-21 16:43:00,56.0,55.0,-100.00,NNE,15,4.0,9.0,95,0.00,,,0.00,,2013-05-21 21:43:00,
2013-05-21 16:53:00,56.0,55.0,-100.00,NNE,25,4.0,8.0,95,0.00,,,0.00,,2013-05-21 21:53:00,
2013-05-21 17:02:00,56.0,55.0,-100.00,NNE,15,4.0,9.0,95,0.00,,,0.00,,2013-05-21 22:02:00,
2013-05-21 17:12:00,56.0,55.0,-100.00,NNE,20,6.0,9.0,95,0.00,,,0.00,,2013-05-21 22:12:00,
2013-05-21 17:22:00,56.0,55.0,-100.00,NE,35,4.0,8.0,95,0.00,,,0.00,,2013-05-21 22:22:00,
2013-05-21 17:33:00,55.0,54.0,-100.00,NNE,20,5.0,9.0,95,0.00,,,0.00,,2013-05-21 22:33:00,
2013-05-21 17:42:00,55.0,54.0,-100.00,NE,50,4.0,9.0,96,0.00,,,0.00,,2013-05-21 22:42:00,
2013-05-21 17:52:00,55.0,54.0,-100.00,North,5,1.0,7.0,96,0.00,,,0.00,,2013-05-21 22:52:00,
2013-05-21 18:02:00,54.0,54.0,-100.00,North,5,4.0,7.0,97,0.00,,,0.00,,2013-05-21 23:02:00,
2013-05-21 18:12:00,54.0,54.0,-100.00,NE,35,4.0,9.0,97,0.00,,,0.00,,2013-05-21 23:12:00,
2013-05-21 18:42:00,53.0,52.0,-100.00,NNE,20,6.0,11.0,98,0.00,,,0.00,,2013-05-21 23:42:00,
2013-05-21 18:52:00,53.0,52.0,-100.00,NE,45,4.0,9.0,98,0.00,,,0.00,,2013-05-21 23:52:00,
2013-05-21 19:01:00,52.0,52.0,-100.00,NE,45,3.0,9.0,98,0.00,,,0.00,,2013-05-22 00:01:00,
2013-05-21 19:11:00,52.0,52.0,-100.00,NNE,30,4.0,7.0,98,0.00,,,0.00,,2013-05-22 00:11:00,
2013-05-21 19:21:00,52.0,52.0,-100.00,NNE,30,4.0,9.0,98,0.00,,,0.00,,2013-05-22 00:21:00,
2013-05-21 19:32:00,52.0,52.0,-100.00,NE,40,4.0,11.0,98,0.00,,,0.00,,2013-05-22 00:32:00,
2013-05-21 20:32:00,51.0,50.0,-100.00,NE,40,4.0,7.0,98,0.00,,,0.00,,2013-05-22 01:32:00,
2013-05-21 20:41:00,51.0,50.0,-100.00,North,10,4.0,10.0,99,0.00,,,0.00,,2013-05-22 01:41:00,
2013-05-21 20:52:00,51.0,50.0,-100.00,NNE,25,6.0,11.0,99,0.00,,,0.00,,2013-05-22 01:52:00,
2013-05-21 21:01:00,50.0,50.0,-100.00,NNE,25,5.0,10.0,99,0.00,,,0.00,,2013-05-22 02:01:00,
2013-05-21 21:11:00,50.0,50.0,-100.00,North,10,4.0,9.0,99,0.00,,,0.00,,2013-05-22 02:11:00,
2013-05-21 21:21:00,50.0,50.0,-100.00,North,10,5.0,7.0,99,0.00,,,0.00,,2013-05-22 02:21:00,
2013-05-21 22:21:00,49.0,48.0,-100.00,North,10,6.0,12.0,99,0.00,,,0.00,,2013-05-22 03:21:00,
2013-05-21 22:33:00,49.0,48.0,-100.00,NE,35,3.0,7.0,99,0.00,,,0.00,,2013-05-22 03:33:00,
2013-05-21 22:43:00,49.0,48.0,-100.00,NNE,30,6.0,11.0,99,0.00,,,0.00,,2013-05-22 03:43:00,
2013-05-21 22:53:00,48.0,48.0,-100.00,North,5,5.0,11.0,99,0.00,,,0.00,,2013-05-22 03:53:00,
2013-05-21 23:03:00,49.0,48.0,-100.00,NE,40,3.0,7.0,99,0.00,,,0.00,,2013-05-22 04:03:00,
2013-05-21 23:13:00,49.0,48.0,-100.00,North,0,5.0,9.0,99,0.00,,,0.00,,2013-05-22 04:13:00,
2013-05-21 23:33:00,47.0,46.0,-100.00,NNE,20,5.0,12.0,99,0.00,,,0.00,,2013-05-22 04:33:00,
2013-05-21 23:43:00,47.0,46.0,-100.00,NE,40,4.0,10.0,99,0.00,,,0.00,,2013-05-22 04:43:00,
2013-05-21 23:52:00,47.0,46.0,-100.00,NNE,30,7.0,10.0,99,0.00,,,0.00,,2013-05-22 04:52:00,